TimeCST,TemperatureF,Dew PointF,Humidity,Sea Level PressureIn,VisibilityMPH,Wind Direction,Wind SpeedMPH,Gust SpeedMPH,PrecipitationIn,Events,Conditions,WindDirDegrees,DateUTC
12:53 AM,45.0,39.9,82,30.16,10.0,WSW,5.8,-,0.01,,Clear,250,2012-11-20 06:53:00
1:53 AM,44.1,39.9,85,30.15,10.0,WSW,4.6,-,N/A,,Clear,250,2012-11-20 07:53:00
2:53 AM,45.0,39.9,82,30.15,10.0,West,5.8,-,N/A,,Clear,260,2012-11-20 08:53:00
3:53 AM,44.1,39.9,85,30.14,9.0,West,4.6,-,N/A,,Clear,260,2012-11-20 09:53:00
4:53 AM,43.0,39.9,89,30.14,7.0,WSW,4.6,-,N/A,,Clear,250,2012-11-20 10:53:00
5:53 AM,42.1,39.9,92,30.15,6.0,SW,4.6,-,N/A,,Clear,230,2012-11-20 11:53:00
6:53 AM,41.0,39.0,93,30.16,4.0,WSW,4.6,-,N/A,,Clear,250,2012-11-20 12:53:00
7:53 AM,44.1,42.1,93,30.17,6.0,WSW,3.5,-,N/A,,Clear,250,2012-11-20 13:53:00
8:53 AM,52.0,46.0,80,30.17,10.0,West,5.8,-,N/A,,Clear,260,2012-11-20 14:53:00
9:53 AM,55.9,46.0,69,30.17,10.0,WNW,5.8,-,N/A,,Clear,300,2012-11-20 15:53:00
10:53 AM,60.1,46.0,60,30.16,10.0,Variable,5.8,-,N/A,,Clear,0,2012-11-20 16:53:00
11:53 AM,64.0,45.0,50,30.13,10.0,Variable,4.6,-,N/A,,Clear,0,2012-11-20 17:53:00
1:53 PM,66.9,41.0,39,30.09,10.0,West,9.2,-,N/A,,Clear,270,2012-11-20 19:53:00
2:53 PM,68.0,39.9,36,30.09,10.0,WNW,6.9,-,N/A,,Clear,290,2012-11-20 20:53:00
3:53 PM,66.9,39.9,37,30.10,10.0,NW,8.1,-,N/A,,Clear,310,2012-11-20 21:53:00
4:53 PM,61.0,42.1,50,30.12,10.0,NNW,8.1,-,N/A,,Clear,330,2012-11-20 22:53:00
5:53 PM,57.0,42.1,57,30.15,10.0,NW,5.8,-,N/A,,Clear,320,2012-11-20 23:53:00
6:53 PM,54.0,42.1,64,30.17,10.0,NNW,4.6,-,N/A,,Clear,340,2012-11-21 00:53:00
7:53 PM,51.1,41.0,68,30.19,10.0,NNW,5.8,-,N/A,,Clear,330,2012-11-21 01:53:00
8:53 PM,51.1,41.0,68,30.19,10.0,North,3.5,-,N/A,,Clear,350,2012-11-21 02:53:00
9:53 PM,50.0,41.0,71,30.21,10.0,North,3.5,-,N/A,,Clear,350,2012-11-21 03:53:00
10:53 PM,48.9,41.0,74,30.21,9.0,North,4.6,-,N/A,,Clear,360,2012-11-21 04:53:00
11:53 PM,46.9,41.0,80,30.22,8.0,North,3.5,-,N/A,,Clear,350,2012-11-21 05:53:00